STARLINK-11747, 64322

Orbit data source: Space-Track

STARLINK-11747, 64322 is a payload satellite owned by SpaceX/Seattle (US) in LEO that was launched on Tue, 10 Jun 2025 UTC via an FALCON 9 launch vehicle from the Air Force Eastern Test Range (AFETR). Payload-class satellites include a variety of spacecraft equipped with specific instruments for various scientific and technological missions. These include communications satellites like Starlink; space stations such as the ISS; scientific satellites like the Hubble; Earth observation satellites from companies like Planet Labs, Umbra, and HawkEye 360; GPS; miniature CubeSats for education and research; and military/defense satellites.

Loading next visibility...
Identifier
64322, 2025-124F
Orbit
LEO
Country
Flag of USUS
Related business
Manufacturer
SpaceX/Seattle
Mission
Operational Commercial Communications
Bus & Motor
STARLINK V2M, Unknown motor
Mass
730 kg wet, ~700 kg dry
Launch date (UTC)
2025-06-10 (3 months ago)
Launch vehicle
FALCON 9
Launch site
Air Force Eastern Test Range (AFETR)
Object type
Payload
Rocket body
Debris
Shape & HBR
Box + 2 Pan, 14.5 m
Radar Cross Section
36.964 m², Large (>1 m²)

Expand to show TLE details & history
Last TLE update: 13 hours ago

TLE from 13 hours ago
0 STARLINK-11747
1 64322U 25124F   25242.62253118  .00168472  00000-0  12856-2 0  9996
2 64322  42.9976 100.9846 0001858 295.8811  64.1865 15.70921235 12783
Epoch: 2025-08-30T14:56Z
TLE epoch observation values (Epoch: 2025-08-30T14:56:26.693Z)
Latitude
-0.00004°
Longitude
-102.18084°
Altitude
355.489 km
Speed
7.698 km/s
True Right ascension
06h 43m 56s
True Declination
0° 00' 00"
Sunlit
Object was in daylight at epoch
Visualization orbit readout
Latitude
Unknown
Longitude
Unknown
Altitude
Unknown
Speed
Unknown
Apparent Right ascension
Unknown
Apparent Declination
Unknown
Sunlit
N/A
Visualization observer readout
Local Sidereal Time
19:10:12
Azimuth
Unknown
Elevation
Unknown
Doppler factor
Unknown
Orbital elements
Apogee altitude
359.497 km
Perigee altitude
356.993 km
Semi-major axis
6,736.382 km
Eccentricity
0.00019
Inclination
42.9976°
RAAN
100.9846°
Arg. of periapsis
295.8811°
True anomaly
64.20567°
Mean anomaly
64.1865°
Eccentric anomaly
64.19608°
Mean motion
3.92557 °/min
Orbital period
91.71 mins
BSTAR
0.0012856
Loading maneuver chart data...
Computing Atmospheric mass density...
Loading historical data...
Loading historical data...
Loading historical data...
Loading historical data...
Loading historical data...
Loading historical data...
Loading historical data...

Documentation

Showing up to 5 results
|